"Pseudo-MPEC" for C2YKNM2

Created 2020 Aug 7 1:07:02 UT using Find_Orb

Click here for an explanation of pseudo-MPECs

 
 Astrometry: 
     C2YKNM2  C2020 07 30.33685 22 14 10.12 +08 19 57.1    ~7U8q 21.6 GVNEOCPG96
     C2YKNM2  C2020 07 30.34405 22 14 10.73 +08 19 53.5    ~7U8q 21.4 GVNEOCPG96
     C2YKNM2  C2020 07 30.35126 22 14 11.32 +08 19 51.4    ~7U8q 20.7 GVNEOCPG96
     C2YKNM2  C2020 07 30.35848 22 14 12.01 +08 19 48.5    ~7U8q 21.2 GVNEOCPG96
     C2YKNM2  C2020 07 30.42490 22 14 17.62 +08 19 21.0    ~7UAq 20.7 GVNEOCPI52
     C2YKNM2  C2020 07 30.42911 22 14 17.98 +08 19 19.2    ~7UAq 20.8 GVNEOCPI52
     C2YKNM2  C2020 07 30.43332 22 14 18.34 +08 19 17.5    ~7UAq 20.7 GVNEOCPI52
     C2YKNM2  C2020 07 30.43753 22 14 18.69 +08 19 15.6    ~7UAq 20.8 GVNEOCPI52
     C2YKNM2 KC2020 07 30v(2]#iL95+Z3q],1c]Oi#E4::u_16n9Mnpu0_ZjLR'X=jpG4MFHgL01
     C2YKNM2 KC2020 07 30`wg/Gj#`=AstrometryKWggL51xAl086_JS+r@lJaFY/66I-;ZN!L01
     C2YKNM2 KC2020 07 30Q2xLXbdoiJsv/lqUp2!OAk?ERZ%P'[mX-LArudvn`+:1a0Db9?.XL01
     C2YKNM2 KC2020 07 30d`mDgC%m%L2RG*MeBKf67MG[i:ws?^fc%cBLhnRU!S9NtJD`;[3bL01
     C2YKNM2  C2020 07 31.30022 22 15 39.28 +08 12 59.7    ~7V7q 21.0 GVNEOCPI52
     C2YKNM2  C2020 07 31.30526 22 15 39.73 +08 12 57.1    ~7V7q 21.0 GVNEOCPI52
     C2YKNM2  C2020 07 31.31029 22 15 40.26 +08 12 54.9    ~7V7q 20.0 GVNEOCPI52
     C2YKNM2 1C2020 07 31Vp.O5FoRKYtw!CPVx]JDQF*F[q.Q'redacted;dG5n][=i`P^Rah658
     C2YKNM2 1C2020 07 31b9Kf?M0JMnpb?X9Gclickwa6kxrbgX9+pEF^a_dN%k8Os-[XuMU6658
     C2YKNM2 1C2020 07 314jcUHas!a1bGu6hereg)/:6/uhJDw`bxNRa*T=E'r,9Z-hK3UTwo658
     C2YKNM2 1C2020 07 31D,E:No^L0$^,?B;\gBTN5h[$9I3GforF]k,(,5QD;ay?+^vtdwNl658
     C2YKNM2 1C2020 07 312pM6dPJ1v-W]i=r@a3\:R6j2dPwlB0bpLFJ8w1IZf,u's1BKGBoY658
     C2YKNM2 pC2020 07 31vY0tKR^g^n#c,t/4OutJVm[Rr(Ng;KFKyKX]8ZA`]*F7YU%.*SXaL01
     C2YKNM2 IC2020 07 31Fm9rOh_jm_pldNOWbJ=/dkhsqv$$.eKUXw*F]N9vD+ar45_55nS6L01
     C2YKNM2 IC2020 07 31MQ2QVt[OtX3uoahl,N-X%m!:\Inc9AnKLJyh_(;k3#4Ycb@A$yiZL01
     C2YKNM2 KC2020 08 06:K]bhw]]/aQG^GemRW'f@C`;!`^[T0sRpS5LQ(GxgH=g;oxB5?v3L01
     C2YKNM2 KC2020 08 06A6rVj\O`hy9$L/UTV-A$Jbts`cX6_lWu3?T=%BB'/Q7r;f55:O,#L01
     C2YKNM2 KC2020 08 06.BTSkr@0]5HT-IP4X'KuT@;i0UX8explanationtZke,1ufId5#qL01

Station data:
(658) Dominion Astrophysical Observatory  (N48.519987 W123.417000)
   Canada/BritColumbia. 1.82-m Plaskett reflector.
(G96) Mt. Lemmon Survey  (N32.442754 W110.788720)  US/Arizona.  Observers T.
   A. Pruyne, B. M. Africano, E. J. Christensen, G. A. Farneth, D. C. Fuls,
   A. R. Gibbs, A. D. Grauer, H. Gröller, J. A. Johnson, R. A. Kowalski, S.
   M. Larson, G. J. Leonard, D. Rankin, R. L. Seaman, F. C. Shelly. 1.5-m
   reflector + 10K CCD.
(I52) Steward Observatory, Mt. Lemmon Station  (N32.442547 W110.788920)
   US/Arizona.  Observers T. A. Pruyne, B. M. Africano, E. J. Christensen, G.
   A. Farneth, D. C. Fuls, A. R. Gibbs, A. D. Grauer, H. Gröller, J. A.
   Johnson, R. A. Kowalski, S. M. Larson, G. J. Leonard, D. Rankin, R. L.
   Seaman, F. C. Shelly. 1.0-m reflector + CCD.
(L01) Višnjan Observatory, Tičan  (N45.290900 E13.749300)  Croatia.
   Observers K. Korlević, E. Pettarin. Measurer E. Pettarin. 1.0-m f/2.9
   reflector + CCD.

Orbital elements:  C2YKNM2
   Perihelion 2020 Sep 25.487689 +/- 0.0882 TT = 11:42:16 (JD 2459117.987689)
Epoch 2020 Aug  6.0 TT = JDT 2459067.5   Earth MOID: 0.2582   AutoNEOCP
M 347.67128585 +/- 0.11             (J2000 ecliptic)
n   0.24419248 +/- 0.00212          Peri.  201.13566 +/- 0.10
a   2.53501883 +/- 0.0147           Node   160.37254 +/- 0.019
e   0.5058067 +/- 0.00251           Incl.   13.41833 +/- 0.035
P   4.04                   H 21.4   G  0.15   U  8.6  
q 1.25278912 +/- 0.00104    Q 3.81724855 +/- 0.0289
From 26 observations 2020 July 30-Aug. 6; mean residual 0".39
Residuals in arcseconds: 
200730 G96  .22-  .14+    200730 L01  .30-  .10-    200731 658  .39-  .18-    
200730 G96  .24-  .55-    200730 L01  .56-  .14-    200731 658  .51-  .54-    
200730 G96  .56-  .27+    200730 L01  .40-  .30-    200731 L01  .26+  .92+    
200730 G96  .60+  .31+    200731 I52  .27-  .01+    200731 L01  .61+  .36-    
200730 I52  .27+  .19+    200731 I52  .04-  .32-    200731 L01  .67-  .68+    
200730 I52  .30+  .14+    200731 I52  1.4+  .25-    200806 L01  .26+  .03-    
200730 I52  .32+  .20+    200731 658  .13+  .18-    200806 L01  .14-  .33+    
200730 I52  .19+  .07+    200731 658  .31+  .05-    200806 L01  .12-  .33-    
200730 L01  .06+  .10+    200731 658  .13-  .01-    

Ephemerides (geocentric):
Date (UTC) HH   RA              Dec         delta   r     elong  mag " sig PA
---- -- -- --  -------------   -----------  ------ ------ -----  --- ---- ---
2020 08 07 01  22 26 26.858   +07 00 24.53  .38593 1.3613 149.7 21.0 .022  96
2020 08 07 02  22 26 31.019   +06 59 49.06  .38567 1.3612 149.7 21.0 .026  72
2020 08 07 03  22 26 35.182   +06 59 13.48  .38541 1.3610 149.8 21.0 .034  55
2020 08 07 04  22 26 39.348   +06 58 37.79  .38515 1.3608 149.8 21.0 .043  45
2020 08 07 05  22 26 43.515   +06 58 01.99  .38489 1.3606 149.8 21.0 .053  39
2020 08 07 06  22 26 47.684   +06 57 26.08  .38463 1.3605 149.9 21.0 .063  34
2020 08 07 07  22 26 51.856   +06 56 50.06  .38437 1.3603 149.9 21.0 .075  31
2020 08 07 08  22 26 56.029   +06 56 13.92  .38411 1.3601 149.9 21.0 .086  29
2020 08 07 09  22 27 00.205   +06 55 37.67  .38385 1.3600 149.9 21.0 .098  27
2020 08 07 10  22 27 04.382   +06 55 01.31  .38359 1.3598 150.0 21.0 .109  26
2020 08 07 11  22 27 08.562   +06 54 24.84  .38333 1.3596 150.0 21.0 .122  24
2020 08 07 12  22 27 12.744   +06 53 48.26  .38307 1.3594 150.0 21.0 .134  23
2020 08 07 13  22 27 16.928   +06 53 11.56  .38281 1.3593 150.1 21.0 .146  23
2020 08 07 14  22 27 21.114   +06 52 34.75  .38256 1.3591 150.1 21.0 .159  22
2020 08 07 15  22 27 25.302   +06 51 57.83  .38230 1.3589 150.1 21.0 .171  21
2020 08 07 16  22 27 29.493   +06 51 20.80  .38204 1.3588 150.2 21.0 .184  21
2020 08 07 17  22 27 33.685   +06 50 43.65  .38178 1.3586 150.2 21.0 .197  20
2020 08 07 18  22 27 37.880   +06 50 06.39  .38152 1.3584 150.2 21.0 .211  20
2020 08 07 19  22 27 42.076   +06 49 29.02  .38127 1.3583 150.3 21.0 .224  19
2020 08 07 20  22 27 46.275   +06 48 51.53  .38101 1.3581 150.3 21.0 .237  19
2020 08 07 21  22 27 50.476   +06 48 13.93  .38075 1.3579 150.3 21.0 .251  19
2020 08 07 22  22 27 54.679   +06 47 36.22  .38050 1.3578 150.3 21.0 .265  19
2020 08 07 23  22 27 58.884   +06 46 58.39  .38024 1.3576 150.4 21.0 .279  18
2020 08 08 00  22 28 03.091   +06 46 20.45  .37998 1.3574 150.4 21.0 .293  18
2020 08 08 01  22 28 07.300   +06 45 42.39  .37973 1.3573 150.4 21.0 .307  18
2020 08 08 02  22 28 11.512   +06 45 04.22  .37947 1.3571 150.5 21.0 .322  18
2020 08 08 03  22 28 15.726   +06 44 25.94  .37922 1.3569 150.5 21.0 .336  17
2020 08 08 04  22 28 19.941   +06 43 47.54  .37896 1.3568 150.5 21.0 .351  17
2020 08 08 05  22 28 24.159   +06 43 09.03  .37871 1.3566 150.6 21.0 .366  17
2020 08 08 06  22 28 28.379   +06 42 30.41  .37845 1.3564 150.6 21.0 .381  17
2020 08 08 07  22 28 32.602   +06 41 51.66  .37820 1.3562 150.6 21.0 .396  17
2020 08 08 08  22 28 36.826   +06 41 12.81  .37794 1.3561 150.7 21.0 .411  17
2020 08 08 09  22 28 41.053   +06 40 33.84  .37769 1.3559 150.7 21.0 .427  17
2020 08 08 10  22 28 45.281   +06 39 54.75  .37744 1.3557 150.7 21.0 .442  17
2020 08 08 11  22 28 49.512   +06 39 15.55  .37718 1.3556 150.7 20.9 .458  16
2020 08 08 12  22 28 53.745   +06 38 36.24  .37693 1.3554 150.8 20.9 .474  16
2020 08 08 13  22 28 57.980   +06 37 56.81  .37667 1.3552 150.8 20.9 .490  16
2020 08 08 14  22 29 02.218   +06 37 17.26  .37642 1.3551 150.8 20.9 .506  16
2020 08 08 15  22 29 06.457   +06 36 37.60  .37617 1.3549 150.9 20.9 .522  16
2020 08 08 16  22 29 10.699   +06 35 57.82  .37592 1.3547 150.9 20.9 .539  16
2020 08 08 17  22 29 14.943   +06 35 17.93  .37566 1.3546 150.9 20.9 .555  16
2020 08 08 18  22 29 19.189   +06 34 37.92  .37541 1.3544 151.0 20.9 .572  16
2020 08 08 19  22 29 23.437   +06 33 57.79  .37516 1.3542 151.0 20.9 .589  16
2020 08 08 20  22 29 27.688   +06 33 17.55  .37491 1.3541 151.0 20.9 .606  16
2020 08 08 21  22 29 31.940   +06 32 37.19  .37466 1.3539 151.1 20.9 .623  16
2020 08 08 22  22 29 36.195   +06 31 56.72  .37441 1.3537 151.1 20.9 .641  15
2020 08 08 23  22 29 40.452   +06 31 16.13  .37415 1.3536 151.1 20.9 .658  15
2020 08 09 00  22 29 44.711   +06 30 35.42  .37390 1.3534 151.2 20.9 .676  15